Weather in St Albans

United Kingdom     51°45′02″N   0°20′23″E
temp.,
°C
wind,
m/s
gust,
m/s
humid.,
%
clouds,
%
prec.,
mm/h
press.,
hPa
HPBL,
m
16 may, mon
mon1601:00+14e61198100 20.2 1010284
04:00+13sse4119711 0.0 1009316
07:00+14sw41096100 0.3 1011495
10:00+15wsw61088100 0.0 1013686
13:00+19sw7106382 0.1 10141582
16:00+19sw8116955 0.4 10151386
19:00+17sw61174100 0.6 1015921
22:00+13sw4108492 0.0 1018288
17 may, tue
tue1701:00+12ssw3890100 0.0 1018204
04:00+10ssw369235 0.0 1018128
07:00+13ssw25865 0.0 1019166
10:00+18ssw35678 0.0 1019781
13:00+21ssw345227 0.0 10181309
16:00+23s57534 0.0 10161561
19:00+20se59646 0.0 1015443
22:00+16s5129037 0.7 1016506
18 may, wed
wed1801:00+13sw5119554 0.7 1017408
04:00+11sw410945 0.0 1019300
07:00+12wsw410874 0.0 1020315
10:00+16sw5766100 0.0 1021806
13:00+19ssw5656100 0.0 10201344
16:00+21ssw4550100 0.0 10191293
19:00+18s3564100 0.0 1018238
22:00+16s1266100 0.0 101838
19 may, thu
thu1901:00+14wsw2295100 2.3 101860
04:00+13n2290100 0.2 101664
07:00+14nw2387100 0.2 1017155
10:00+16w3476100 0.0 1018634
13:00+18w5658100 0.0 10191168
16:00+19wsw565329 0.0 10191532
19:00+17w366993 0.0 1020363
22:00+13wsw348751 0.0 102192
20 may, fri
fri2001:00+11sw2392100 0.0 102158
04:00+11ssw2292100 0.0 102046
07:00+12ssw2481100 0.0 1020176
10:00+16s4658100 0.0 1019604
13:00+17ssw4660100 0.0 1017964
16:00+18sw686792 0.1 10151398
19:00+17wsw587115 0.3 10151027
22:00+13wsw511900 0.1 1016439